Probability
0 0 0 0 0 0 0 0 0 0 2 7 13 19 23 28 34 42 48 54 61 65 66 65 65 70 79 86 88 85 84 86 84 80 82 87 84 77 71 65 60 55 54 56
0 0 0 0 0 0 0 0 0 1 3 7 13 18 24 32 42 51 57 62 65 66 65 64 65 69 76 81 80 78 77 80 81 80 83 87 82 73 65 58 49 43 42 43
0 0 0 0 0 0 0 0 0 1 2 4 8 13 22 34 46 56 62 63 62 61 59 57 58 62 65 67 68 67 69 73 75 77 82 83 77 66 55 44 33 26 25 24
0 0 0 0 0 0 0 0 1 1 1 1 2 6 18 32 42 49 54 53 49 45 43 42 44 46 47 49 52 56 61 64 65 68 72 72 66 55 43 30 20 15 13 13
0 0 0 0 0 0 0 0 1 0 0 0 0 4 16 29 36 37 38 36 31 28 27 27 28 28 29 32 37 42 47 51 52 54 57 56 50 41 29 18 12 8 7 6
0 0 0 0 0 0 0 0 0 0 0 0 0 7 21 32 32 27 24 20 17 16 16 17 18 18 18 21 24 28 32 35 36 38 40 39 33 26 18 11 6 3 2 2
0 0 0 0 0 0 0 0 0 0 0 0 3 17 37 43 33 22 16 13 11 10 10 11 12 12 13 14 15 17 19 21 22 22 25 24 19 14 11 7 3 0 0 0
0 0 0 0 0 0 0 0 0 0 0 1 9 30 52 50 32 19 13 10 9 9 8 9 9 10 10 11 12 12 12 13 14 14 14 13 9 7 5 2 1 0 0 0
0 0 0 0 0 0 0 0 0 0 0 1 10 30 44 40 27 16 12 10 8 7 6 6 6 6 7 8 9 9 9 9 8 8 7 5 3 2 1 0 0 0 0 0
0 0 0 0 0 0 0 0 0 0 0 0 5 13 21 23 19 13 10 8 5 3 2 2 2 2 3 4 5 5 5 4 3 3 2 1 0 0 0 0 0 0 0 0
0 0 0 0 0 0 0 0 0 0 0 0 0 2 7 11 11 8 6 4 2 0 0 0 0 0 0 1 1 2 1 1 0 0 0 0 0 0 0 0 0 0 0 0
0 0 0 0 0 0 0 0 0 0 0 0 0 1 5 9 7 3 2 1 0 0 0 0 0 0 0 0 0 0 0 0 0 0 0 0 0 0 0 0 0 0 0 0
0 0 0 0 0 0 0 0 0 0 0 0 0 1 6 8 5 1 0 0 0 0 0 0 0 0 0 0 0 0 0 0 0 0 0 0 0 0 0 0 0 0 0 0
0 0 0 0 0 0 0 0 0 0 0 0 0 1 4 4 2 0 0 0 0 0 0 0 0 0 0 0 0 0 0 0 0 0 0 0 0 0 0 0 0 0 0 0
0 0 0 0 0 0 0 0 1 1 1 1 1 1 1 1 0 0 0 0 0 0 0 0 0 0 0 0 0 0 0 0 0 0 0 0 0 0 0 0 0 0 0 0
0 0 0 0 0 0 0 1 1 1 2 2 3 3 2 2 1 1 0 0 0 0 0 0 0 0 0 0 0 0 0 0 0 0 0 0 0 0 0 0 0 0 0 0
0 0 0 0 0 0 0 0 0 0 1 2 3 3 3 3 2 1 1 0 0 0 0 0 0 0 0 0 0 0 0 0 0 0 0 0 0 0 0 0 0 0 0 0
0 0 0 0 0 0 0 0 0 0 0 1 2 2 3 3 2 2 1 0 0 0 0 0 0 0 0 0 0 0 0 0 0 0 0 0 0 0 0 0 0 0 0 0
0 0 0 0 0 0 0 0 0 0 0 0 0 1 2 1 1 1 1 0 0 0 0 0 0 0 0 0 0 0 0 0 0 0 0 0 0 0 0 0 0 0 0 0
0 0 0 0 0 0 0 0 0 0 0 0 0 0 0 0 0 0 0 0 0 0 0 0 0 0 0 0 0 0 0 0 0 0 0 0 0 0 0 0 0 0 0 0
0 0 0 0 0 0 0 0 0 0 0 0 0 0 0 0 0 0 0 0 0 0 0 0 0 0 0 0 0 0 0 0 0 0 0 0 0 0 0 0 0 0 0 0
0 0 0 0 0 0 0 0 0 0 0 0 0 0 0 0 0 0 0 0 0 0 0 0 0 0 0 0 0 0 0 0 0 0 0 0 0 0 0 0 0 0 0 0
0 0 0 0 0 0 0 0 0 0 0 0 0 0 0 0 0 0 0 0 0 0 0 0 0 0 0 0 0 0 0 0 0 0 0 0 0 0 0 0 0 0 0 0
0 0 0 0 0 0 0 0 0 0 0 0 0 0 0 0 0 0 0 0 0 0 0 0 0 0 0 0 0 0 0 0 0 0 0 0 0 0 0 0 0 0 0 0
0 0 0 0 0 0 0 0 0 0 0 0 0 0 0 0 0 0 0 0 0 0 0 0 0 0 0 0 0 0 0 0 0 0 0 0 0 0 0 0 0 0 0 0
0 0 0 0 0 0 0 0 0 0 0 0 0 0 0 0 0 0 0 0 0 0 0 0 0 0 0 0 0 0 0 0 0 0 0 0 0 0 0 0 0 0 0 0
Wind_Speed
11 12 11 11 12 14 15 14 11 8 5 8 7 5 1 2 3 4 4 6 8 9 10 9 9 8 8 8 7 6 7 7 6 5 6 5 4 4 3 4 5 5 4 4
12 13 12 11 11 11 13 13 9 3 3 5 6 4 3 4 7 10 11 11 10 10 11 11 11 7 6 7 6 5 5 6 5 4 4 4 5 4 5 5 6 6 6 5
13 9 7 8 10 10 12 11 9 6 5 6 6 6 7 6 9 12 12 12 12 12 12 12 12 11 10 6 5 3 4 4 4 3 3 5 5 4 4 5 5 7 8 8
12 10 9 9 11 11 11 11 10 10 8 8 11 8 9 9 9 10 11 12 12 12 12 12 12 11 11 9 7 6 5 4 4 4 4 6 5 5 5 6 6 9 10 10
11 9 9 9 9 10 11 9 9 10 10 11 12 9 8 11 10 9 11 12 12 12 12 12 12 11 11 10 9 8 8 7 6 5 5 6 7 7 7 8 10 9 9 10
13 9 7 9 9 10 10 9 9 11 12 15 14 13 8 8 11 11 10 11 12 12 13 12 12 11 11 12 11 9 10 10 9 9 8 8 11 11 10 10 10 8 7 9
11 9 6 7 8 8 10 9 7 10 12 13 14 10 4 11 14 14 13 12 11 12 12 12 13 13 13 13 12 11 12 12 12 12 11 11 12 12 11 10 10 9 7 8
9 7 4 5 8 8 10 12 9 6 6 8 6 3 9 16 17 16 14 13 13 13 12 13 12 12 12 13 12 12 13 13 13 13 13 13 12 10 10 11 10 9 8 8
6 7 6 8 10 10 10 11 9 8 8 7 2 5 9 13 15 15 14 14 13 12 12 12 12 12 12 12 13 13 13 14 14 14 14 14 13 13 13 11 10 9 8 8
5 8 6 5 7 9 10 8 4 7 5 5 5 6 7 14 13 13 13 14 13 12 11 12 11 12 11 12 12 14 14 15 14 13 12 12 13 13 12 11 11 10 9 9
7 7 6 4 3 5 6 7 6 6 4 4 4 1 1 13 13 13 13 13 12 12 11 11 11 11 11 12 12 13 13 14 13 13 13 13 12 12 12 11 10 9 8 7
5 5 6 4 4 7 6 6 6 6 6 5 1 2 3 14 15 15 14 13 13 12 12 12 12 11 11 12 12 12 12 13 12 12 12 12 12 11 11 10 9 7 6 6
6 5 5 4 2 3 4 5 7 9 7 5 4 5 8 14 15 14 14 13 12 12 12 11 11 11 11 11 11 11 11 11 11 11 11 11 10 10 9 8 7 6 6 6
1 3 3 3 3 4 5 7 9 8 5 5 6 8 9 12 14 14 13 12 12 12 11 11 10 10 10 10 10 10 10 10 10 10 11 10 9 8 8 7 6 5 5 5
2 4 3 3 2 2 4 7 9 9 9 6 6 7 7 9 12 13 13 13 12 12 12 11 10 9 9 9 9 9 9 8 8 9 10 9 8 7 7 6 5 4 4 5
2 3 4 4 1 1 5 8 8 8 10 8 9 8 8 10 11 11 12 13 12 12 11 11 10 10 9 8 8 8 8 7 7 8 9 8 7 7 6 5 5 4 5 5
3 4 5 4 2 1 4 7 8 9 10 7 6 6 8 10 10 10 11 12 12 11 11 10 9 9 7 6 7 7 7 6 6 7 7 7 6 6 5 5 5 5 4 4
5 6 4 4 1 2 5 6 7 8 10 10 9 10 9 10 10 8 9 11 12 12 11 10 8 8 7 6 6 6 6 6 7 6 7 6 6 6 5 5 5 4 3 3
2 4 5 3 2 6 5 5 6 5 8 8 9 10 11 12 11 8 8 10 11 11 10 9 8 7 6 6 5 6 5 6 6 6 6 6 5 5 5 5 4 3 3 3
3 4 5 4 2 3 5 6 4 3 5 6 8 8 9 8 5 5 8 12 12 11 9 8 7 7 6 5 5 5 6 5 6 6 5 5 4 5 5 4 3 2 2 3
3 3 4 4 2 6 6 5 3 2 4 4 6 6 6 3 7 12 12 12 11 11 10 8 7 6 5 5 5 5 5 5 5 5 4 3 3 2 3 3 2 2 2 2
4 5 4 4 3 6 8 6 7 6 7 7 8 9 12 15 16 14 13 12 11 10 9 8 7 6 4 4 4 5 4 4 4 3 3 2 2 2 4 2 1 2 2 1
4 6 6 7 7 8 10 10 8 8 9 9 11 13 16 16 15 14 12 11 10 10 9 7 7 6 5 4 4 4 3 3 3 2 2 2 2 2 2 1 1 1 1 2
5 3 5 7 9 9 10 10 10 11 11 12 13 14 15 15 14 13 11 10 10 9 8 7 7 7 6 4 4 3 3 2 2 1 1 0 0 1 2 2 3 4 5 5
5 3 4 8 11 10 10 10 12 12 13 14 14 14 15 15 14 12 11 10 9 9 7 6 6 6 6 5 4 3 2 1 1 0 1 1 0 1 2 3 4 5 5 4
4 3 2 5 9 8 11 12 13 13 13 13 14 14 14 13 13 12 10 9 9 8 7 7 6 6 6 5 5 4 3 1 0 1 1 1 0 1 1 3 4 7 5 4
Wind_Direction
235 239 246 248 244 261 280 284 270 251 180 192 194 206 145 89 95 92 68 67 76 69 61 59 57 67 92 97 105 119 132 138 147 156 165 162 151 133 104 84 82 83 74 72
248 243 257 272 273 270 271 271 269 248 174 198 189 162 115 79 72 70 63 58 60 55 55 53 59 52 73 93 106 113 122 138 151 159 158 148 135 114 101 87 72 64 58 47
269 278 273 266 268 264 262 262 258 245 209 217 199 185 172 127 95 83 77 68 54 56 51 47 49 43 42 52 75 115 130 130 134 135 136 126 111 112 105 89 71 58 55 48
277 273 268 258 257 256 257 257 260 251 230 223 216 214 189 157 123 98 85 76 65 55 50 45 42 36 35 33 45 54 71 95 114 126 132 135 135 125 103 89 78 64 56 52
278 282 273 264 263 260 265 270 264 258 249 248 231 228 189 158 145 112 89 77 69 61 56 47 43 41 37 33 38 45 56 63 70 77 96 112 106 97 93 90 83 72 62 56
285 279 268 271 270 267 266 260 255 255 249 244 236 239 187 168 149 123 99 81 70 62 57 49 43 43 43 41 40 45 57 58 60 69 77 93 100 101 98 91 87 77 70 61
292 278 256 267 265 251 251 247 239 235 233 241 233 223 120 121 128 125 112 92 79 68 61 51 44 42 44 45 46 50 56 58 59 65 68 81 90 93 90 91 89 86 77 69
305 286 248 256 260 258 246 246 246 257 271 278 266 150 117 113 113 113 110 101 87 75 68 61 54 49 49 50 52 60 64 63 63 66 68 70 75 80 82 82 86 83 80 77
304 297 272 263 267 260 248 247 263 268 271 274 261 98 120 123 122 121 114 101 89 80 74 69 62 58 56 55 57 65 71 71 68 69 72 72 75 81 85 83 82 82 81 82
290 293 279 272 264 263 270 261 265 270 271 270 240 190 172 152 137 126 117 106 97 89 80 74 69 67 65 65 68 70 71 73 73 73 75 79 76 77 81 83 82 81 79 77
326 298 290 284 291 289 279 271 274 270 269 274 264 259 49 154 139 127 114 107 103 96 88 82 77 73 72 71 70 72 74 76 76 77 79 80 79 80 80 79 80 80 79 79
335 308 300 297 292 286 284 294 292 288 287 275 274 95 94 126 127 121 115 109 104 99 94 89 84 79 76 74 74 75 76 78 79 80 81 81 82 81 82 83 82 83 84 83
341 337 320 324 328 308 308 309 302 301 304 327 351 94 101 109 111 113 114 113 108 104 100 94 87 83 81 80 80 80 81 85 87 88 87 85 84 85 86 86 86 84 80 75
296 315 316 310 309 311 328 330 341 341 343 6 55 105 112 116 120 119 117 116 114 111 106 100 95 90 87 85 85 86 87 90 92 92 90 88 88 88 87 85 83 82 82 80
329 310 305 277 283 333 346 358 10 10 11 28 79 104 119 125 130 128 128 126 122 120 115 111 106 100 95 91 90 89 90 91 94 96 95 94 95 93 90 85 80 76 72 75
340 302 297 280 261 101 52 30 24 28 38 62 79 83 99 111 116 124 132 132 129 127 123 118 113 108 101 98 97 95 95 94 93 95 97 98 98 97 96 95 87 75 66 61
307 304 303 291 228 181 65 35 33 40 36 36 64 94 111 112 120 133 138 134 131 130 126 122 117 112 107 103 102 102 98 99 98 99 101 100 98 95 91 87 83 75 70 64
316 318 301 288 302 55 78 57 61 62 60 64 89 112 112 107 107 112 130 134 133 130 126 124 118 113 108 103 102 103 105 108 106 103 101 100 95 89 83 76 71 66 62 61
314 307 301 308 21 108 100 53 35 61 76 75 99 110 114 114 103 93 107 119 123 123 122 119 117 115 113 110 110 110 107 105 102 96 90 86 84 81 77 71 65 54 47 51
216 255 283 312 355 70 68 42 42 104 98 85 107 120 134 145 125 116 113 112 113 113 114 115 114 114 114 113 112 106 102 97 95 91 88 83 74 70 65 58 50 45 41 44
277 265 298 327 58 84 37 11 343 15 98 98 110 121 131 108 100 120 119 113 114 115 116 115 112 110 109 106 103 100 98 95 95 94 90 85 82 86 84 67 41 23 38 45
332 342 359 350 42 67 14 27 52 77 96 100 104 108 107 104 110 117 119 119 120 120 121 123 118 115 113 115 114 107 104 102 99 95 89 80 58 42 72 70 44 23 7 351
36 31 28 45 71 79 64 75 88 97 101 102 107 114 117 118 120 121 123 125 126 127 129 131 129 127 127 122 117 112 111 108 99 86 75 66 52 49 44 14 4 10 9 6
111 85 109 113 110 102 95 93 92 96 101 107 114 118 121 121 123 123 123 125 129 132 136 139 139 135 129 125 119 120 121 107 110 113 113 154 122 96 72 19 21 36 27 17
95 124 112 112 124 118 106 103 103 103 105 110 116 119 122 124 127 129 130 135 138 140 144 146 141 137 139 142 139 140 137 119 78 8 280 272 168 100 92 76 48 45 63 49
91 96 120 133 147 135 125 120 118 117 116 118 120 120 124 128 131 133 133 135 138 141 142 142 144 144 144 147 149 153 155 149 112 292 302 299 215 145 133 137 115 61 86 104